{"data":{"norad_id":65931,"intl_designator":"2025-225X","name":"STARLINK-35526","alt_names":[],"object_type":"PAYLOAD","status":"ACTIVE","operator":null,"country":"US","launch_date":"2025-10-08","launch_site_code":"AFWTR","launch_vehicle":null,"mission":null,"orbit_class":"UNKNOWN","rcs_meters":null,"size_class":null,"mass_kg":null,"dimensions":null,"purposes":["comms"],"wikipedia_slug":null,"has_3d_model":false,"image_url":null,"decayed_at":null,"tle_current":{"epoch":"2026-09-20T21:43:30.093888Z","epoch_age_seconds":68129,"freshness":"FRESH","line1":"1 65931U 25225X   26263.90520942  .00016744  00000+0  50558-3 0  9997","line2":"2 65931  53.1585 337.7062 0001352  74.5329 285.5823 15.34400865 54314","mean_motion":15.34400865,"eccentricity":0.0001352,"inclination_deg":53.1585,"raan_deg":337.7062,"arg_perigee_deg":74.5329,"mean_anomaly_deg":285.5823,"bstar":0.00050558,"rev_number":5431,"period_min":93.847705175792,"perigee_km":461.77578799314,"apogee_km":463.6255504989,"semimajor_km":6840.837669246,"source":"CELESTRAK","updated_at":"2026-09-21T09:00:35.766513Z"}}}